Date,TemperatureHighF,TemperatureAvgF,TemperatureLowF,DewpointHighF,DewpointAvgF,DewpointLowF,HumidityHigh,HumidityAvg,HumidityLow,PressureMaxIn,PressureMinIn,WindSpeedMaxMPH,WindSpeedAvgMPH,GustSpeedMaxMPH,PrecipitationSumIn
2013-9-1,83,68,58,0,0,0,0,0,100,29.89,29.79,8,1,10,0.00
2013-9-2,86,71,60,0,0,0,0,0,100,29.89,29.79,8,1,8,0.00
2013-9-3,86,69,56,0,0,0,0,0,100,29.92,29.82,10,1,11,0.00
2013-9-4,88,69,56,0,0,0,0,0,100,29.96,29.83,7,1,9,0.00
2013-9-5,90,70,56,0,0,0,0,0,100,29.93,29.83,10,1,10,0.00
2013-9-6,95,74,56,0,0,0,0,0,100,29.92,29.75,9,1,9,0.00
2013-9-7,95,76,58,0,0,0,0,0,100,29.82,29.72,10,1,10,0.00
2013-9-8,90,70,56,0,0,0,0,0,100,29.83,29.68,7,1,7,0.00
2013-9-9,94,69,55,0,0,0,0,0,100,29.76,29.62,8,1,8,0.00
2013-9-10,75,64,60,0,0,0,0,0,100,29.84,29.67,10,1,11,0.00
2013-9-11,71,66,63,0,0,0,0,0,100,29.94,29.84,7,1,7,0.00
2013-9-12,81,67,60,0,0,0,0,0,100,29.92,29.80,11,1,11,0.00
2013-9-13,81,66,57,0,0,0,0,0,100,29.84,29.67,10,1,12,0.00
2013-9-14,81,65,57,0,0,0,0,0,100,29.77,29.64,12,1,12,0.00
2013-9-15,82,66,56,0,0,0,0,0,100,29.80,29.70,7,1,9,0.00
2013-9-16,87,68,56,0,0,0,0,0,100,29.84,29.67,11,1,11,0.00
2013-9-17,82,67,54,0,0,0,0,0,100,29.82,29.73,15,3,16,0.00
2013-9-18,88,70,57,0,0,0,0,0,100,29.85,29.72,11,1,12,0.00
2013-9-19,90,68,52,0,0,0,0,0,100,29.80,29.67,9,1,29,0.00
2013-9-20,78,63,50,0,0,0,0,0,100,29.79,29.71,11,1,11,0.00
2013-9-21,71,64,56,54,24,-31,55,28,50,29.83,29.72,17,1,17,0.77
2013-9-22,78,61,51,60,44,32,55,52,49,29.94,29.83,7,1,10,0.00
2013-9-23,84,64,54,66,46,36,55,52,50,29.96,29.83,7,0,7,0.00
2013-9-24,74,61,56,57,31,0,55,37,50,29.91,29.81,17,2,17,0.00
2013-9-25,75,62,52,0,0,0,0,0,100,29.88,29.74,17,4,17,0.00
2013-9-26,81,63,50,0,0,0,0,0,100,29.93,29.78,11,1,11,0.00
2013-9-27,82,65,50,0,0,0,0,0,100,30.04,29.94,8,1,13,0.00
2013-9-28,82,64,50,0,0,0,0,0,100,30.03,29.93,8,1,9,0.00
2013-9-29,72,63,56,0,0,0,0,0,100,30.04,29.98,10,1,11,0.00
2013-9-30,74,65,57,0,0,0,0,0,100,29.99,29.90,8,1,8,0.00